Theta_e
321 322 321 321 320 319 318 318 318 318 317 318 317 317 317 317 317 317 317 317 317 319 320 321 322 323 315 304 303 313 352 351 326 317 313 311 310 311 310 314 318 321 320 324 325 324 324
321 321 321 320 320 319 319 318 318 318 317 317 318 317 317 317 317 317 317 317 317 319 319 320 322 324 308 294 311 320 325 321 319 315 312 312 312 315 312 313 315 317 319 320 323 322 322
321 320 320 320 319 319 319 319 318 317 317 317 316 316 317 316 317 316 316 316 317 318 319 320 322 322 309 300 315 313 318 315 313 315 313 314 315 312 311 313 319 317 314 317 318 323 321
320 320 320 320 319 319 319 318 318 317 317 317 316 316 316 316 316 315 315 316 317 318 319 321 323 314 300 310 315 316 313 314 320 316 315 316 316 311 311 315 313 314 312 305 315 320 323
320 320 319 319 320 319 319 318 318 317 316 316 316 315 315 315 315 314 314 315 317 319 320 321 309 305 298 318 313 313 313 312 315 318 318 323 313 308 310 306 303 307 302 307 311 320 320
320 320 319 319 319 319 318 318 317 317 316 315 315 314 314 314 314 313 314 315 315 317 318 322 320 305 305 305 309 310 311 314 312 312 314 311 305 303 301 300 297 301 302 306 308 315 316
320 319 319 319 319 318 317 317 317 317 316 315 314 314 313 313 313 313 309 306 300 300 307 300 300 306 311 312 312 309 311 310 310 309 303 305 301 299 302 303 306 303 304 304 311 317 312
320 319 319 318 318 317 317 316 316 317 316 315 314 315 314 312 313 312 306 303 302 310 304 309 309 309 312 310 306 308 310 305 305 301 302 301 298 304 306 305 303 302 301 304 313 317 312
319 319 318 318 318 318 317 317 317 316 315 314 313 313 312 311 312 306 304 307 312 310 302 308 308 306 305 309 306 305 308 305 303 301 301 298 303 308 306 304 302 300 302 306 306 312 313
318 317 318 318 318 318 316 317 317 315 315 313 313 313 312 310 304 305 305 308 312 311 296 302 303 307 306 307 303 310 309 306 303 302 302 301 306 306 304 302 302 297 308 310 308 304 297
317 317 318 317 317 317 317 316 316 315 314 314 313 313 310 310 304 306 308 311 307 307 290 308 303 310 305 304 302 304 308 307 302 304 302 301 303 303 302 304 306 303 309 307 309 304 300
318 317 318 317 316 317 316 316 316 315 314 314 314 312 311 306 306 308 311 311 307 297 292 303 305 302 300 300 302 304 306 307 308 303 302 303 307 305 304 308 308 309 305 303 302 299 294
318 317 318 317 316 316 316 316 316 314 313 313 311 310 309 311 305 311 310 305 296 291 305 301 297 299 297 297 300 300 301 299 298 293 293 301 303 305 307 301 304 302 297 291 292 293 293
318 317 317 317 316 316 316 316 315 314 312 311 309 308 308 309 308 308 308 301 290 300 301 308 299 298 296 298 298 299 298 296 299 298 294 293 294 301 306 303 300 299 297 292 289 291 296
318 317 316 316 316 316 316 316 314 313 312 310 308 304 301 305 309 307 305 294 295 301 310 309 300 295 294 298 298 298 297 297 300 300 295 292 295 306 307 307 307 300 296 300 296 296 296
317 317 316 315 315 316 316 316 314 312 312 310 302 304 307 310 311 308 302 295 299 306 313 310 297 298 294 297 297 297 296 302 301 303 302 297 294 301 308 307 306 303 304 295 294 291 289
316 317 317 316 316 316 316 316 314 312 311 309 305 307 313 311 312 306 298 298 305 311 314 308 304 302 300 299 299 296 298 303 306 304 303 300 298 300 304 299 300 304 301 297 297 296 294
317 316 316 316 316 316 316 315 313 311 310 306 303 305 312 311 303 299 298 303 305 307 312 309 308 306 304 302 298 299 300 302 308 305 300 301 296 293 298 307 307 308 303 300 295 293 297
316 316 317 316 316 317 316 314 313 311 310 307 304 308 314 311 297 297 301 305 307 307 308 309 308 309 309 303 299 301 301 313 312 305 302 303 299 292 297 303 305 304 304 302 299 296 298
316 316 317 316 317 317 316 315 312 311 310 304 310 307 310 308 302 301 301 303 304 313 311 312 310 312 308 306 307 307 308 314 315 309 324 311 296 296 295 298 302 301 305 304 300 296 295
316 316 317 317 317 317 316 314 313 311 310 305 311 308 308 303 304 304 304 306 308 307 310 312 312 312 308 303 307 306 309 309 312 315 308 303 298 301 300 304 305 304 305 305 301 300 300
316 315 315 315 315 315 316 315 313 311 309 307 303 306 305 300 305 306 302 304 307 309 309 309 309 312 309 305 307 307 310 305 305 309 305 303 298 297 299 305 305 303 306 306 308 311 309
316 316 315 315 315 316 317 316 314 311 308 301 304 306 304 302 304 303 304 305 309 311 312 314 314 310 309 312 316 313 316 316 312 307 304 304 299 295 293 299 299 295 302 304 309 314 311
315 316 316 316 317 317 317 316 315 313 310 306 301 303 301 300 305 306 309 311 311 310 309 313 312 308 312 318 316 314 314 312 313 307 308 303 299 294 293 294 288 297 310 312 308 309 316
314 315 315 315 316 317 317 317 316 314 312 307 302 302 300 297 303 306 307 310 311 309 310 313 314 313 316 309 305 302 302 306 308 311 306 305 300 295 292 290 294 303 306 306 305 303 309
315 315 315 314 316 317 317 317 315 314 312 303 302 304 303 299 301 308 305 310 305 304 307 310 313 311 312 304 303 295 296 299 299 304 304 302 302 300 294 290 292 300 308 312 309 299 309
313 313 314 315 315 316 316 317 316 314 313 306 303 304 305 300 302 303 303 303 308 306 304 305 307 307 307 301 298 296 297 302 297 297 296 298 297 296 294 294 300 306 310 311 298 300 309
313 313 315 315 315 315 316 316 315 315 314 308 303 305 306 300 302 307 310 304 304 305 302 306 307 306 304 300 298 297 297 299 298 298 298 298 296 295 295 294 294 311 310 302 304 307 309
312 313 313 314 315 315 316 316 316 314 314 311 300 307 309 304 304 309 313 314 312 309 304 302 303 303 305 301 301 301 300 298 296 296 302 298 299 298 298 298 304 308 307 309 310 309 309
Wind_Speed
18 18 18 18 18 18 18 17 17 17 18 17 17 15 13 12 11 11 10 10 9 9 9 10 10 11 4 1 11 5 2 10 8 7 5 3 2 3 3 5 5 5 5 5 8 6 3
18 18 19 19 19 19 19 19 19 18 18 18 17 16 14 12 12 11 10 9 9 8 8 8 10 10 1 4 4 4 3 4 5 5 4 6 5 3 4 5 0 4 8 7 4 5 4
18 18 19 19 19 19 18 17 18 19 19 19 19 16 15 14 12 11 10 9 9 8 7 7 7 3 1 15 1 5 3 3 2 3 5 6 4 3 6 7 4 5 3 6 6 2 4
19 18 19 19 18 18 18 19 19 19 19 18 19 18 16 15 12 10 9 9 9 8 7 6 4 1 9 5 5 9 4 5 4 5 5 3 4 3 5 4 8 4 5 5 3 4 1
19 18 19 19 17 18 17 18 19 20 19 19 18 19 17 14 11 9 8 8 9 8 5 4 0 2 11 8 4 6 6 5 0 2 5 6 2 2 5 3 5 7 2 3 6 8 4
20 19 20 20 19 18 18 18 20 20 19 19 18 19 17 14 10 8 8 7 6 6 3 4 4 3 5 4 4 4 4 5 3 3 4 3 5 3 4 5 3 1 4 5 4 6 8
20 20 21 21 19 21 21 20 21 21 20 19 19 18 16 14 9 7 5 3 3 2 2 10 7 4 3 6 4 4 5 5 3 4 4 3 4 8 9 5 3 2 4 6 5 6 6
20 20 20 20 21 22 21 22 21 19 19 18 19 16 14 14 8 5 1 3 4 3 7 15 8 8 6 1 4 5 4 5 4 4 3 5 7 9 4 4 4 4 6 7 2 6 5
19 19 20 18 19 19 19 19 19 21 20 19 19 18 16 11 4 1 3 7 2 5 0 5 7 6 6 8 6 7 9 5 3 5 5 7 10 5 1 5 3 4 5 6 5 4 6
20 20 17 18 19 19 21 20 19 21 20 20 20 19 14 7 2 2 5 4 10 4 5 6 4 8 5 5 3 8 9 6 2 8 6 7 7 6 6 7 5 5 8 7 5 5 3
21 22 18 20 21 20 20 23 20 22 21 21 21 17 12 5 3 3 2 6 1 3 2 3 3 2 5 9 2 4 5 4 7 5 7 8 0 2 5 12 5 13 4 3 4 6 3
21 22 19 23 23 21 21 21 20 24 24 22 17 11 7 3 2 9 7 7 3 6 4 1 5 7 6 2 0 3 4 4 4 4 2 7 4 5 8 10 8 2 7 9 6 3 6
20 22 20 21 22 22 22 22 22 25 26 23 17 10 5 4 4 3 4 3 6 3 3 4 5 5 4 4 2 4 6 5 6 3 5 7 7 6 6 5 1 7 7 4 4 6 3
20 22 22 22 22 22 23 22 24 27 27 27 24 7 7 7 2 6 2 6 3 4 5 3 4 5 6 4 4 4 5 5 1 5 3 0 9 3 3 7 8 4 9 7 4 4 4
21 21 24 23 23 23 23 23 25 27 28 29 13 1 2 6 13 3 6 3 6 5 4 3 5 6 1 3 4 4 7 8 9 9 8 4 7 6 6 5 8 4 3 5 10 4 4
21 22 25 25 24 24 24 25 26 29 30 26 2 1 4 5 13 3 6 5 5 4 5 2 3 4 5 5 6 7 8 8 7 11 6 4 4 4 8 5 5 6 7 3 4 6 1
23 23 23 24 24 24 26 24 28 29 27 17 1 3 3 5 3 6 4 7 5 5 2 3 2 4 6 4 10 8 8 8 15 7 8 6 4 10 5 2 7 5 3 6 6 5 7
22 24 23 23 24 24 26 27 30 27 27 5 2 5 1 1 5 2 2 6 5 4 0 6 2 7 7 8 6 10 14 9 9 10 11 8 5 5 9 9 3 6 5 6 6 3 2
24 23 23 24 24 25 26 28 30 30 24 2 3 1 2 4 3 2 5 5 3 5 7 5 5 1 6 2 2 5 7 4 2 14 12 9 4 1 6 7 5 6 3 4 7 4 4
23 24 24 24 25 25 26 27 31 32 23 2 3 4 4 4 2 3 3 6 4 4 7 6 4 6 2 4 3 2 3 3 6 3 11 8 4 7 8 8 5 3 4 3 4 5 4
24 23 24 24 25 25 26 27 30 31 23 2 4 0 2 2 4 4 2 3 5 3 4 5 5 6 5 4 4 4 4 6 7 10 6 6 3 2 1 2 1 3 3 6 4 5 7
22 25 25 25 26 25 24 24 27 30 21 4 3 2 4 1 3 4 1 3 4 5 3 3 4 5 4 4 3 7 6 4 2 6 4 3 2 4 7 5 1 3 1 2 2 3 3
22 23 25 25 25 24 23 23 24 24 16 4 3 2 3 4 4 2 3 5 6 3 1 1 2 6 8 1 3 2 4 5 2 3 5 5 4 4 3 6 6 5 5 4 3 2 7
21 22 22 24 24 23 23 22 22 20 14 2 3 1 3 2 2 2 5 6 5 6 3 3 5 6 1 5 3 6 7 9 1 2 4 5 5 1 3 3 2 5 6 9 13 9 5
21 22 22 23 24 23 22 21 21 17 17 2 2 2 2 2 3 6 7 6 6 6 6 3 4 2 6 6 6 7 8 5 7 5 0 7 6 2 4 2 3 3 5 2 2 5 7
21 21 23 24 23 22 22 21 22 20 18 1 3 1 2 3 4 5 4 3 3 5 7 4 5 4 5 3 4 4 5 7 4 5 5 7 5 4 4 3 8 8 4 4 5 5 5
21 22 22 22 23 23 23 23 22 20 17 3 4 2 2 1 5 3 1 3 3 3 2 5 8 9 3 3 3 3 4 5 3 5 3 3 2 6 4 3 5 5 2 2 4 9 4
20 21 20 21 22 23 23 22 22 20 17 6 5 3 2 1 6 4 4 1 4 2 3 6 5 6 5 5 3 3 3 3 1 2 4 8 7 4 4 4 6 3 2 7 7 6 8
21 21 22 21 22 22 22 21 19 18 16 7 3 2 1 3 7 4 11 16 9 9 2 3 4 3 4 3 0 1 2 2 3 2 4 2 5 6 4 5 3 4 4 6 8 9 5
Wind_Direction
17 13 11 10 8 7 5 2 359 355 352 346 346 341 334 325 318 311 305 304 304 312 313 318 321 326 337 272 252 299 69 97 123 133 189 194 243 195 174 259 275 222 271 202 238 301 246
14 11 9 7 5 3 2 360 357 354 352 349 343 342 336 327 318 310 303 301 301 308 310 315 318 322 301 261 249 251 125 103 130 144 180 168 223 224 266 256 4 248 253 292 289 320 72
9 8 7 4 2 1 360 356 354 352 350 349 346 342 334 327 317 308 303 298 302 303 306 308 311 305 312 235 129 358 300 225 156 180 206 199 172 71 330 300 300 296 326 327 356 36 149
5 4 3 2 0 357 355 355 353 348 346 346 346 343 336 327 318 308 302 295 298 296 294 291 294 294 247 256 306 303 182 275 228 225 264 284 181 224 198 312 351 24 39 5 271 346 75
2 1 0 360 357 355 351 350 350 349 346 344 342 343 340 332 323 310 301 297 289 283 265 261 253 161 266 306 255 239 170 229 70 248 261 294 2 223 18 54 10 8 309 286 313 343 140
1 359 357 356 356 353 351 348 348 347 345 343 343 342 340 335 326 312 305 282 284 298 207 196 252 357 271 223 230 195 171 164 211 354 355 138 46 18 49 70 202 317 339 309 293 346 44
360 358 356 355 352 352 351 347 346 344 344 341 341 339 338 329 324 315 341 97 59 4 249 191 197 239 269 287 277 226 147 122 99 66 194 6 62 236 241 174 194 293 265 259 258 156 73
360 357 355 352 351 351 348 346 344 340 342 340 339 334 336 328 313 312 36 199 196 210 287 220 223 274 278 37 326 269 105 126 121 205 87 2 250 244 231 225 242 246 276 281 308 103 95
357 355 354 349 348 346 345 342 340 341 339 338 336 335 336 328 341 7 223 230 288 6 49 279 187 202 207 156 197 247 132 143 147 178 184 179 242 86 214 279 248 243 214 234 200 107 43
358 355 349 348 347 345 344 340 337 340 338 336 334 332 336 321 335 228 243 245 245 93 40 268 227 263 165 148 268 199 171 139 189 203 165 221 274 240 279 270 148 292 223 245 194 120 189
357 355 350 350 349 345 339 339 338 338 335 331 330 328 328 228 324 208 203 345 58 76 358 166 191 108 146 148 178 222 156 76 186 186 119 238 122 89 245 234 151 233 120 156 91 102 98
356 353 348 350 348 344 336 332 336 337 333 330 325 319 327 168 237 242 314 315 97 43 260 221 144 167 129 131 85 144 159 82 155 204 249 233 266 233 232 270 192 263 63 43 51 83 51
351 351 346 345 345 343 336 333 336 336 333 329 319 285 214 213 221 324 277 86 55 159 330 188 181 150 134 136 166 138 173 150 163 113 322 329 265 242 187 239 153 81 69 2 7 21 197
350 349 347 346 342 342 336 334 337 337 334 330 323 287 214 221 269 344 106 57 180 237 255 324 124 93 154 151 215 159 126 215 218 102 87 200 324 209 177 187 186 156 143 152 188 166 213
350 348 348 347 345 343 338 337 340 338 336 334 325 83 232 242 213 318 77 82 219 215 279 333 63 89 277 247 163 120 202 213 194 164 174 169 273 294 207 195 135 181 149 180 105 51 88
348 346 349 350 347 344 341 340 343 341 338 334 310 319 257 125 147 93 78 240 248 231 342 330 125 137 176 222 158 158 183 212 207 187 159 199 290 245 288 143 79 142 153 89 28 136 201
349 347 347 348 347 344 346 343 345 343 338 333 23 62 303 168 142 51 156 238 283 268 92 321 182 137 209 222 189 182 212 245 200 188 151 147 120 288 9 103 178 26 20 62 115 122 143
349 349 347 347 348 346 347 347 347 345 342 23 353 56 271 273 62 32 201 209 294 316 128 272 260 217 203 198 220 198 199 223 194 160 168 197 157 224 248 310 208 115 157 130 121 225 103
351 348 347 348 347 349 351 350 350 349 347 291 71 82 8 48 135 241 273 277 247 288 268 249 253 21 317 8 185 195 150 196 152 168 173 175 249 290 341 351 358 93 218 113 116 89 204
349 350 348 349 349 353 353 350 353 351 354 80 79 82 340 44 195 141 297 276 245 249 256 273 277 350 98 21 7 151 99 341 7 149 92 98 112 168 182 195 156 142 244 180 121 120 183
350 348 346 346 350 352 353 355 352 353 355 4 30 51 179 223 280 305 222 285 281 271 255 317 13 254 193 130 12 57 41 346 32 347 95 113 123 252 141 113 89 153 169 174 238 163 152
347 352 353 352 354 355 352 354 357 355 352 58 73 36 354 270 297 312 74 244 268 281 230 251 185 326 86 110 202 185 143 62 26 320 85 6 58 26 351 352 143 289 172 197 178 117 31
346 347 352 352 350 348 351 355 358 4 1 38 326 340 108 288 335 64 271 290 303 281 191 246 242 112 65 273 114 84 107 99 2 56 32 57 92 71 267 345 6 338 333 275 121 92 145
345 345 347 348 345 345 350 355 0 8 18 317 274 19 50 279 345 294 307 301 325 307 204 312 34 58 84 169 127 16 30 43 71 234 179 140 91 17 184 1 237 255 21 95 96 32 81
343 343 345 346 342 344 347 352 359 1 2 321 282 70 80 304 275 305 325 318 317 336 12 15 344 306 186 59 51 30 359 38 284 256 283 124 109 84 124 195 285 322 315 289 84 2 356
338 337 342 344 340 342 345 350 355 357 357 23 261 196 126 113 245 286 314 338 320 334 355 330 321 323 55 64 96 138 189 208 258 283 55 80 68 146 125 171 211 203 203 142 75 16 350
337 337 338 335 337 340 343 346 351 353 353 328 275 219 111 140 270 343 309 285 325 29 279 308 335 355 57 65 90 147 249 205 206 188 206 112 39 184 139 184 281 227 213 158 114 207 125
332 331 329 331 332 336 338 342 346 349 350 358 276 256 92 247 274 238 284 317 347 59 123 278 13 350 18 53 101 232 187 242 348 239 182 177 155 181 94 92 260 154 165 168 168 98 132
330 326 332 332 330 330 334 336 338 345 347 8 296 317 354 179 245 249 256 251 207 224 130 353 181 217 212 80 262 108 271 3 149 257 7 291 194 165 165 212 290 272 156 113 114 121 134